BY70-1

Last updated on Feb. 18, 2017, 12:17 a.m. UTC

1 41909U 16083C   17048.91695933  .18854398  25879-5  30412-3 0  9991
2 41909  97.5426 132.0489 0018248 184.8500 177.2537 16.46800792  8197

Satellite is not in orbit.